Weather History for Hutchinson, KS

Change the Weather History Date:

Monday, October 21, 2013

  Actual Average Record
Temperature  
Mean Temperature 50 °F -  
Max Temperature 63 °F 66 °F 88 °F (2012)
Min Temperature 37 °F 41 °F 28 °F (2006)
Degree Days  
Heating Degree Days 15    
Moisture  
Dew Point 35 °F    
Average Humidity 58    
Maximum Humidity 89    
Minimum Humidity 33    
Precipitation  
Precipitation 0.00 in - - ()
Sea Level Pressure  
Sea Level Pressure 30.06 in    
Wind  
Wind Speed 10 mph (NNW)    
Max Wind Speed 18 mph    
Max Gust Speed 25 mph    
Visibility 10 miles    
Events      
Averages and records for this station are not official NWS values.
T = Trace of Precipitation, MM = Missing Value Source: NWS Daily Summary

Daily Weather History Graph

Daily Weather History Graph

Search for Another Location

Airport:

Trip Planner

Search our weather history database for the weather conditions in past years. The results will help you decide how hot, cold, wet, or windy it might be!

Date:

Astronomy

Oct. 21, 2013 Rise Set
Actual Time 7:46 AM CDT 6:45 PM CDT
Civil Twilight 7:19 AM CDT 7:11 PM CDT
Nautical Twilight 6:48 AM CDT 7:42 PM CDT
Astronomical Twilight 6:18 AM CDT 8:13 PM CDT
Moon 8:41 PM CDT (10/21) 10:20 AM CDT (10/21)
Length of Visible Light 11h 52m
Length of Day
10h 58m
Waning Gibbous, 92% of the Moon is Illuminated
Oct 21
Waning Gibbous
Oct 26
Last Quarter
Nov 3
New
Nov 9
First Quarter
Nov 17
Full

Hourly Weather History & Observations

Time (CDT) Temp. Windchill Dew Point Humidity Pressure Visibility Wind Dir Wind Speed Gust Speed Precip Events Conditions
12:52 AM 54.0 °F - 39.0 °F 57% 29.97 in 10.0 mi North 18.4 mph 25.3 mph N/A   Clear
1:52 AM 52.0 °F - 37.9 °F 59% 29.98 in 10.0 mi North 17.3 mph 25.3 mph N/A   Clear
2:52 AM 50.0 °F - 37.0 °F 61% 30.02 in 10.0 mi NNE 13.8 mph 24.2 mph N/A   Clear
3:52 AM 48.0 °F - 36.0 °F 63% 30.05 in 10.0 mi NNE 9.2 mph - N/A   Mostly Cloudy
4:52 AM 48.0 °F - 36.0 °F 63% 30.05 in 10.0 mi NNE 12.7 mph - N/A   Overcast
5:52 AM 46.0 °F 41.9 °F 36.0 °F 68% 30.08 in 10.0 mi NNE 8.1 mph - N/A   Scattered Clouds
6:52 AM 43.0 °F 39.5 °F 35.1 °F 74% 30.10 in 10.0 mi NNE 5.8 mph - N/A   Clear
7:52 AM 42.1 °F 38.4 °F 35.1 °F 76% 30.13 in 10.0 mi North 5.8 mph - N/A   Clear
8:52 AM 42.1 °F 37.1 °F 35.1 °F 76% 30.13 in 10.0 mi NNE 8.1 mph - N/A   Clear
9:52 AM 48.0 °F - 35.1 °F 61% 30.14 in 10.0 mi Variable 4.6 mph - N/A   Clear
10:52 AM 52.0 °F - 33.1 °F 49% 30.14 in 10.0 mi Variable 4.6 mph - N/A   Clear
11:52 AM 54.0 °F - 30.0 °F 40% 30.13 in 10.0 mi Calm Calm - N/A   Clear
12:52 PM 57.0 °F - 28.9 °F 34% 30.12 in 10.0 mi Calm Calm - N/A   Clear
1:52 PM 59.0 °F - 32.0 °F 36% 30.09 in 10.0 mi WSW 8.1 mph - N/A   Clear
2:52 PM 61.0 °F - 33.1 °F 35% 30.06 in 10.0 mi West 8.1 mph - N/A   Clear
3:52 PM 63.0 °F - 33.1 °F 33% 30.04 in 10.0 mi West 11.5 mph - N/A   Clear
4:52 PM 63.0 °F - 33.1 °F 33% 30.04 in 10.0 mi WNW 9.2 mph - N/A   Clear
5:52 PM 62.1 °F - 34.0 °F 35% 30.03 in 10.0 mi West 5.8 mph - N/A   Partly Cloudy
6:52 PM 55.9 °F - 35.1 °F 45% 30.03 in 10.0 mi Calm Calm - N/A   Clear
7:52 PM 45.0 °F - 36.0 °F 71% 30.05 in 10.0 mi Calm Calm - N/A   Clear
8:52 PM 43.0 °F - 36.0 °F 76% 30.05 in 10.0 mi Calm Calm - N/A   Clear
9:52 PM 41.0 °F - 36.0 °F 82% 30.04 in 10.0 mi Calm Calm - N/A   Clear
10:52 PM 37.9 °F - 35.1 °F 89% 30.04 in 10.0 mi Calm Calm - N/A   Clear
11:52 PM 43.0 °F - 35.1 °F 74% 30.03 in 10.0 mi Calm Calm - N/A   Clear